• In Österreich
  • Länderverzeichnis
  • Für 7 Tage
  • Wassertemperatur
  • Satellitenkarten
  • Wetterkarte
  • News
  • Widgets
  • user-avatar
    Anmelden

    Stündliche Wetter Chyzhiv

    Heute, 15 Oktober, Montag

    Zeit Temperatur Niederschläge Wind Luftdruck Luftfeuchtigkeit
    00:00 +8°C° 0 mm 4 m/S 735 mmHg 51%
    01:00 +8°C° 0 mm 4 m/S 735 mmHg 52%
    02:00 +8°C° 0 mm 3 m/S 735 mmHg 55%
    03:00 +7°C° 0 mm 3 m/S 735 mmHg 57%
    04:00 +7°C° 0 mm 3 m/S 735 mmHg 58%
    05:00 +7°C° 0 mm 3 m/S 735 mmHg 59%
    06:00 +7°C° 0 mm 3 m/S 735 mmHg 60%
    07:00 +8°C° 0 mm 3 m/S 735 mmHg 60%
    08:00 +7°C° 0 mm 4 m/S 735 mmHg 60%
    09:00 +10°C° 0 mm 4 m/S 735 mmHg 55%
    10:00 +13°C° 0 mm 4 m/S 735 mmHg 50%
    11:00 +15°C° 0 mm 5 m/S 735 mmHg 45%
    12:00 +16°C° 0 mm 5 m/S 735 mmHg 43%
    13:00 +17°C° 0 mm 5 m/S 735 mmHg 42%
    14:00 +19°C° 0 mm 5 m/S 735 mmHg 40%
    15:00 +18°C° 0 mm 4 m/S 734 mmHg 44%
    16:00 +17°C° 0 mm 4 m/S 734 mmHg 49%
    17:00 +14°C° 0 mm 3 m/S 734 mmHg 53%
    18:00 +13°C° 0 mm 3 m/S 734 mmHg 54%
    19:00 +12°C° 0 mm 3 m/S 734 mmHg 54%
    20:00 +11°C° 0 mm 3 m/S 734 mmHg 55%
    21:00 +11°C° 0 mm 3 m/S 734 mmHg 54%
    22:00 +11°C° 0 mm 3 m/S 734 mmHg 53%
    23:00 +11°C° 0 mm 3 m/S 734 mmHg 52%

    Morgen, 16 Oktober, Dienstag

    Zeit Temperatur Niederschläge Wind Luftdruck Luftfeuchtigkeit
    00:00 +10°C° 0 mm 3 m/S 734 mmHg 54%
    01:00 +10°C° 0 mm 3 m/S 733 mmHg 55%
    02:00 +10°C° 0 mm 3 m/S 733 mmHg 57%
    03:00 +9°C° 0 mm 3 m/S 733 mmHg 59%
    04:00 +9°C° 0 mm 3 m/S 733 mmHg 61%
    05:00 +9°C° 0 mm 3 m/S 733 mmHg 64%
    06:00 +9°C° 0 mm 3 m/S 733 mmHg 64%
    07:00 +9°C° 0 mm 3 m/S 733 mmHg 65%
    08:00 +10°C° 0 mm 3 m/S 733 mmHg 66%
    09:00 +12°C° 0 mm 3 m/S 734 mmHg 60%
    10:00 +14°C° 0 mm 4 m/S 734 mmHg 55%
    11:00 +17°C° 0 mm 4 m/S 734 mmHg 49%
    12:00 +18°C° 0 mm 4 m/S 734 mmHg 47%
    13:00 +19°C° 0 mm 4 m/S 734 mmHg 45%
    14:00 +20°C° 0 mm 4 m/S 734 mmHg 42%
    15:00 +19°C° 0 mm 3 m/S 733 mmHg 48%
    16:00 +17°C° 0 mm 3 m/S 733 mmHg 53%
    17:00 +16°C° 0 mm 2 m/S 733 mmHg 58%
    18:00 +15°C° 0 mm 2 m/S 733 mmHg 60%
    19:00 +14°C° 0 mm 2 m/S 733 mmHg 63%
    20:00 +13°C° 0 mm 2 m/S 733 mmHg 66%
    21:00 +13°C° 0 mm 2 m/S 733 mmHg 67%
    22:00 +12°C° 0 mm 2 m/S 733 mmHg 68%
    23:00 +12°C° 0 mm 2 m/S 733 mmHg 69%

    übermorgen, 17 Oktober, Mittwoch

    Zeit Temperatur Niederschläge Wind Luftdruck Luftfeuchtigkeit
    00:00 +12°C° 0 mm 2 m/S 733 mmHg 71%
    01:00 +10°C° 0 mm 2 m/S 733 mmHg 72%
    02:00 +10°C° 0 mm 2 m/S 733 mmHg 73%
    03:00 +10°C° 0 mm 2 m/S 733 mmHg 74%
    04:00 +9°C° 0 mm 2 m/S 733 mmHg 76%
    05:00 +9°C° 0 mm 2 m/S 733 mmHg 77%
    06:00 +10°C° 0 mm 2 m/S 733 mmHg 77%
    07:00 +10°C° 0 mm 2 m/S 733 mmHg 76%
    08:00 +10°C° 0 mm 2 m/S 733 mmHg 76%
    09:00 +13°C° 0 mm 3 m/S 733 mmHg 69%
    10:00 +16°C° 0 mm 3 m/S 733 mmHg 62%
    11:00 +18°C° 0 mm 4 m/S 733 mmHg 55%
    12:00 +19°C° 0 mm 4 m/S 733 mmHg 53%
    13:00 +20°C° 0 mm 4 m/S 733 mmHg 51%
    14:00 +21°C° 0 mm 4 m/S 733 mmHg 49%
    15:00 +20°C° 0 mm 3 m/S 732 mmHg 54%
    16:00 +19°C° 0 mm 3 m/S 732 mmHg 58%
    17:00 +17°C° 0 mm 2 m/S 732 mmHg 63%
    18:00 +16°C° 0 mm 3 m/S 732 mmHg 65%
    19:00 +14°C° 0 mm 3 m/S 732 mmHg 68%
    20:00 +13°C° 0 mm 3 m/S 732 mmHg 70%
    21:00 +12°C° 0 mm 3 m/S 732 mmHg 70%
    22:00 +12°C° 0 mm 3 m/S 732 mmHg 70%
    23:00 +11°C° 0 mm 3 m/S 732 mmHg 70%

    18 Oktober, Donnerstag

    Zeit Temperatur Niederschläge Wind Luftdruck Luftfeuchtigkeit
    00:00 +11°C° 0 mm 3 m/S 732 mmHg 70%
    01:00 +11°C° 0 mm 3 m/S 732 mmHg 71%
    02:00 +10°C° 0 mm 3 m/S 732 mmHg 71%
    03:00 +10°C° 0 mm 3 m/S 732 mmHg 72%
    04:00 +10°C° 0 mm 3 m/S 731 mmHg 74%
    05:00 +10°C° 0 mm 3 m/S 731 mmHg 75%
    06:00 +10°C° 0 mm 3 m/S 731 mmHg 74%
    07:00 +10°C° 0 mm 3 m/S 731 mmHg 74%
    08:00 +10°C° 0 mm 3 m/S 731 mmHg 74%
    09:00 +12°C° 0 mm 3 m/S 731 mmHg 67%
    10:00 +16°C° 0 mm 3 m/S 731 mmHg 61%
    11:00 +18°C° 0 mm 4 m/S 732 mmHg 54%
    12:00 +18°C° 0 mm 4 m/S 731 mmHg 51%
    13:00 +19°C° 0 mm 4 m/S 731 mmHg 49%
    14:00 +20°C° 0 mm 3 m/S 731 mmHg 46%
    15:00 +19°C° 0 mm 3 m/S 731 mmHg 50%
    16:00 +18°C° 0 mm 2 m/S 730 mmHg 54%
    17:00 +16°C° 0 mm 2 m/S 730 mmHg 59%
    18:00 +15°C° 0 mm 2 m/S 730 mmHg 61%
    19:00 +14°C° 0 mm 2 m/S 730 mmHg 63%
    20:00 +13°C° 0 mm 2 m/S 730 mmHg 65%
    21:00 +13°C° 0 mm 2 m/S 730 mmHg 66%
    22:00 +12°C° 0 mm 2 m/S 730 mmHg 66%
    23:00 +12°C° 0 mm 2 m/S 730 mmHg 67%

    19 Oktober, Freitag

    Zeit Temperatur Niederschläge Wind Luftdruck Luftfeuchtigkeit
    00:00 +11°C° 0 mm 1 m/S 730 mmHg 67%
    01:00 +11°C° 0 mm 1 m/S 730 mmHg 68%
    02:00 +11°C° 0 mm 1 m/S 730 mmHg 68%
    03:00 +11°C° 0 mm 1 m/S 730 mmHg 69%
    04:00 +10°C° 0 mm 1 m/S 730 mmHg 69%
    05:00 +10°C° 0 mm 1 m/S 730 mmHg 69%
    06:00 +10°C° 0 mm 1 m/S 730 mmHg 68%
    07:00 +10°C° 0 mm 0 m/S 730 mmHg 68%
    08:00 +10°C° 0 mm 0 m/S 730 mmHg 67%
    09:00 +12°C° 0 mm 0 m/S 730 mmHg 62%
    10:00 +15°C° 0 mm 1 m/S 730 mmHg 56%
    11:00 +16°C° 0 mm 1 m/S 730 mmHg 51%
    12:00 +18°C° 0 mm 1 m/S 730 mmHg 49%
    13:00 +19°C° 0 mm 1 m/S 730 mmHg 47%
    14:00 +20°C° 0 mm 1 m/S 730 mmHg 45%
    15:00 +19°C° 0 mm 1 m/S 730 mmHg 50%
    16:00 +16°C° 0 mm 1 m/S 730 mmHg 55%
    17:00 +15°C° 0 mm 1 m/S 730 mmHg 60%
    18:00 +14°C° 0 mm 1 m/S 730 mmHg 64%
    19:00 +13°C° 0 mm 1 m/S 730 mmHg 68%
    20:00 +12°C° 0 mm 1 m/S 730 mmHg 72%
    21:00 +12°C° 0 mm 1 m/S 730 mmHg 75%
    22:00 +12°C° 0 mm 1 m/S 730 mmHg 78%
    23:00 +11°C° 0 mm 1 m/S 730 mmHg 81%

    20 Oktober, Samstag

    Zeit Temperatur Niederschläge Wind Luftdruck Luftfeuchtigkeit
    00:00 +10°C° 0 mm 2 m/S 730 mmHg 83%
    01:00 +9°C° 0 mm 2 m/S 730 mmHg 85%
    02:00 +9°C° 0 mm 2 m/S 730 mmHg 87%
    03:00 +9°C° 0 mm 2 m/S 730 mmHg 89%
    04:00 +8°C° 0 mm 2 m/S 730 mmHg 90%
    05:00 +8°C° 0 mm 2 m/S 730 mmHg 92%
    06:00 +8°C° 0 mm 2 m/S 730 mmHg 91%
    07:00 +8°C° 0 mm 2 m/S 730 mmHg 90%
    08:00 +9°C° 0 mm 3 m/S 731 mmHg 90%
    09:00 +10°C° 0 mm 3 m/S 731 mmHg 83%
    10:00 +12°C° 0 mm 3 m/S 731 mmHg 76%
    11:00 +14°C° 0 mm 4 m/S 731 mmHg 69%
    12:00 +14°C° 0 mm 4 m/S 731 mmHg 67%
    13:00 +15°C° 0 mm 4 m/S 731 mmHg 65%
    14:00 +15°C° 0 mm 4 m/S 731 mmHg 63%
    15:00 +14°C° 0.1 mm 4 m/S 731 mmHg 68%
    16:00 +13°C° 0.1 mm 3 m/S 731 mmHg 73%
    17:00 +13°C° 0.1 mm 3 m/S 731 mmHg 78%
    18:00 +12°C° 0.1 mm 3 m/S 731 mmHg 82%
    19:00 +11°C° 0.1 mm 3 m/S 731 mmHg 85%
    20:00 +10°C° 0.1 mm 3 m/S 732 mmHg 89%
    21:00 +10°C° 0.1 mm 3 m/S 732 mmHg 90%
    22:00 +9°C° 0.1 mm 3 m/S 732 mmHg 90%
    23:00 +9°C° 0.1 mm 3 m/S 732 mmHg 91%
    Mehr zeigen